Regional Weather Roundup
Issued by NWS State College, PA

Home | Current Version | Previous Version | Text Only | Print | Product List | Glossary On
Versions: 1 2 3 4 5 6 7 8 9 10 11 12 13 14 15 16 17 18 19 20 21 22 23 24 25 26 27 28 29 30 31 32 33 34 35 36 37 38 39 40 41 42 43 44 45 46 47 48 49 50
999
ASUS41 KCTP 021610
RWRCTP

REGIONAL WEATHER ROUNDUP
NATIONAL WEATHER SERVICE STATE COLLEGE PA
1100 AM EST FRI DEC 02 2016

Note: "fair" indicates few or no clouds below 12,000 feet with no
significant weather and/or obstructions to visibility.

* = STATION THAT DOES NOT REPORT PRECIPITATION /E.G. RAIN...SNOW...ETC/
    THUNDER OR FOG.

PAZ002>004-007>009-013>016-020>023-029>032-021700-
WESTERN PENNSYLVANIA

CITY           SKY/WX    TMP DP  RH WIND       PRES   REMARKS
ERIE           CLOUDY    38  35  89 SW14      29.98S
MEADVILLE      CLOUDY    36  29  75 SW13G21   29.99R
FRANKLIN*        N/A     36  27  69 W12G18    30.01S
NEW CASTLE     CLOUDY    38  30  73 W14       30.05S
BEAVER COUNTY  CLOUDY    37  28  70 W10G17    30.05R
BUTLER*        CLOUDY    37  27  65 SW10      30.07S
PITTSBURGH INT DRIZZLE   38  29  70 W10       30.07S
PITTSBURGH     CLOUDY    36  26  67 W14G29    30.07S
INDIANA*       CLOUDY    36  30  80 W13G22    30.06S
LATROBE        CLOUDY    37  28  70 W17       30.08R
WASHINGTON CO* CLOUDY    36  28  75 SW9       30.10S
$$

PAZ004>006-010>012-017>019-024>028-033>037-041-042-045-046-049>053-021700-
CENTRAL PENNSYLVANIA

CITY           SKY/WX    TMP DP  RH WIND       PRES   REMARKS
BRADFORD       LGT SNOW  33  31  92 W8G24     29.90S FOG
DUBOIS         CLOUDY    36  28  73 W17G23    29.96R
CLEARFIELD     CLOUDY    39  30  70 SW14G23   29.97S
JOHNSTOWN      CLOUDY    32  26  78 W15G24    29.99S
ALTOONA        CLOUDY    38  28  67 W16       30.02S
STATE COLLEGE  MOSUNNY   41  30  65 W15       29.98S
WILLIAMSPORT   CLOUDY    45  30  55 W12G23    29.95S
SELINSGROVE    CLOUDY    45  32  60 W10G18    29.98F
FT INDIANTOWN  MOSUNNY   47  29  49 W10       29.97F
CAPITAL CITY   MOSUNNY   48  28  46 W13G28    30.01F
HARRISBURG     PTSUNNY   46  31  55 W18       30.00F
YORK           PTSUNNY   44  31  60 W9G21     30.02S
$$

PAZ038>040-043-044-047-048-054-055-060>062-067>071-021700-
EASTERN PENNSYLVANIA

CITY           SKY/WX    TMP DP  RH WIND       PRES   REMARKS
SCRANTON       CLOUDY    42  31  64 SW12G20   29.90F
MOUNT POCONO   CLOUDY    37  28  70 W15G25    29.88S
ALLENTOWN      SUNNY     47  30  51 W12G21    29.95F
QUAKERTOWN*    SUNNY     45  30  57 NW8G16    29.97S
READING        SUNNY     46  29  51 W18G26    29.96F
LANCASTER      MOSUNNY   45  32  60 W21G26    29.99F
COATESVILLE    MOSUNNY   45  30  57 W18       29.99F
POTTSTOWN      MOSUNNY   46  29  51 NW17G23   29.98F
BLUE BELL      SUNNY     43  32  65 W7G17     29.97F
DOYLESTOWN     SUNNY     49  31  49 W15G21    29.95F
WILLOW GROVE   NOT AVBL
NORTH PHILA    SUNNY     49  31  49 NW20G30   29.99F
PHILADELPHIA   PTSUNNY   48  28  46 W16       30.00S
$$




USA.gov is the U.S. government's official web portal to all federal, state and local government web resources and services.